Weather History for Nashua, NH

Change the Weather History Date:

Sunday, January 20, 2013

  Actual Average Record
Temperature  
Mean Temperature 40 °F -  
Max Temperature 50 °F 33 °F 57 °F (1951)
Min Temperature 27 °F 11 °F -19 °F (1971)
Degree Days  
Heating Degree Days 26    
Moisture  
Dew Point 21 °F    
Average Humidity 50    
Maximum Humidity 68    
Minimum Humidity 36    
Precipitation  
Precipitation 0.00 in - - ()
Sea Level Pressure  
Sea Level Pressure 30.47 in    
Wind  
Wind Speed 8 mph (WNW)    
Max Wind Speed 17 mph    
Max Gust Speed 32 mph    
Visibility 10 miles    
Events      
Averages and records for this station are not official NWS values.
T = Trace of Precipitation, MM = Missing Value Source: NWS Daily Summary

Daily Weather History Graph

Daily Weather History Graph

Search for Another Location

Airport:

Trip Planner

Search our weather history database for the weather conditions in past years. The results will help you decide how hot, cold, wet, or windy it might be!

Date:

Astronomy

Jan. 20, 2013 Rise Set
Actual Time 7:10 AM EST 4:43 PM EST
Civil Twilight 6:39 AM EST 5:14 PM EST
Nautical Twilight 6:05 AM EST 5:49 PM EST
Astronomical Twilight 5:31 AM EST 6:23 PM EST
Moon 11:43 AM EST (1/20) 1:39 AM EST (1/20)
Length of Visible Light 10h 34m
Length of Day
9h 33m
Waxing Gibbous, 66% of the Moon is Illuminated
Jan 20
Waxing Gibbous
Jan 26
Full
Feb 3
Last Quarter
Feb 10
New
Feb 17
First Quarter

Hourly Weather History & Observations

Time (EST) Temp. Windchill Dew Point Humidity Pressure Visibility Wind Dir Wind Speed Gust Speed Precip Events Conditions
12:51 AM 39.9 °F 35.8 °F 29.1 °F 65% 30.56 in 10.0 mi Variable 5.8 mph - N/A   Partly Cloudy
1:51 AM 39.9 °F 35.8 °F 29.1 °F 65% 30.56 in 10.0 mi Variable 5.8 mph - N/A   Scattered Clouds
2:51 AM 39.9 °F 35.8 °F 29.1 °F 65% 30.52 in 10.0 mi Variable 5.8 mph - N/A   Partly Cloudy
3:51 AM 38.8 °F 35.4 °F 28.0 °F 65% 30.48 in 10.0 mi Variable 4.6 mph - N/A   Clear
4:51 AM 37.9 °F 34.4 °F 28.0 °F 68% 30.45 in 10.0 mi Variable 4.6 mph - N/A   Clear
5:51 AM 36.9 °F 33.1 °F 27.1 °F 68% 30.40 in 10.0 mi Variable 4.6 mph - N/A   Clear
6:51 AM 37.9 °F 33.5 °F 28.0 °F 68% 30.38 in 10.0 mi Variable 5.8 mph - N/A   Clear
7:51 AM 38.8 °F 33.8 °F 27.1 °F 63% 30.35 in 10.0 mi Variable 6.9 mph - N/A   Clear
9:51 AM 46.9 °F - 26.1 °F 44% 30.32 in 10.0 mi Variable 6.9 mph - N/A   Clear
10:51 AM 48.9 °F - 26.1 °F 41% 30.30 in 10.0 mi WSW 9.2 mph 21.9 mph N/A   Clear
11:51 AM 50.0 °F - 26.1 °F 39% 30.27 in 10.0 mi WSW 16.1 mph 21.9 mph N/A   Mostly Cloudy
12:51 PM 46.9 °F - 26.1 °F 44% 30.30 in 10.0 mi WNW 15.0 mph 20.7 mph N/A   Overcast
1:51 PM 43.0 °F 36.4 °F 22.1 °F 44% 30.34 in 10.0 mi West 12.7 mph 21.9 mph N/A   Mostly Cloudy
2:51 PM 43.9 °F 36.2 °F 18.1 °F 36% 30.37 in 10.0 mi West 17.3 mph 28.8 mph N/A   Scattered Clouds
4:51 PM 37.9 °F 29.2 °F 14.0 °F 38% 30.48 in 10.0 mi WNW 15.0 mph 32.2 mph N/A   Clear
6:51 PM 32.9 °F 22.4 °F 10.0 °F 39% 30.56 in 10.0 mi NW 16.1 mph 32.2 mph N/A   Clear
7:51 PM 31.1 °F 21.4 °F 9.1 °F 40% 30.60 in 10.0 mi NW 12.7 mph 24.2 mph N/A   Clear
8:51 PM 29.1 °F 19.4 °F 8.1 °F 41% 30.62 in 10.0 mi West 11.5 mph 19.6 mph N/A   Clear
9:51 PM 29.1 °F 17.9 °F 8.1 °F 41% 30.64 in 10.0 mi WNW 15.0 mph 20.7 mph N/A   Scattered Clouds
10:51 PM 29.1 °F 22.1 °F 10.0 °F 45% 30.67 in 10.0 mi WNW 6.9 mph - N/A   Mostly Cloudy
11:51 PM 27.1 °F 16.9 °F 6.1 °F 41% 30.68 in 10.0 mi WNW 11.5 mph - N/A   Clear